TJS-1

Last updated on Tue Sep 22 2026 00:03:13 GMT+0000 (Coordinated Universal Time)

1 40892U 15046A 26264.59107780 -.00000159 00000+0 00000+0 0 9990 2 40892 0.5646 83.9167 0003338 73.8320 210.5545 1.00272794 40536
UTC large
Height (km)
Speed (km/s)
/
Latitude / Longitude
Inclination (degrees)
Orbital Period (minutes)
Azimuth
Elevation
Range (km)
Doppler Factor

Next 0 passes for location: London (51.5072 / 0.1276)

No passes found over London.
TJS-1